PST,Max TemperatureF,Mean TemperatureF,Min TemperatureF,Max Dew PointF,MeanDew PointF,Min DewpointF,Max Humidity, Mean Humidity, Min Humidity, Max Sea Level PressureIn, Mean Sea Level PressureIn, Min Sea Level PressureIn, Max VisibilityMiles, Mean VisibilityMiles, Min VisibilityMiles, Max Wind SpeedMPH, Mean Wind SpeedMPH, Max Gust SpeedMPH,PrecipitationIn, CloudCover, Events, WindDirDegrees
2012-11-1,70,60,51,58,56,50,100,92,58,30.05,30.02,30.00,10,8,0,8,3,,0.03,5,Fog,187
2012-11-2,70,58,46,54,51,45,100,84,54,30.09,30.06,30.03,10,10,2,6,1,,0.01,0,,158
2012-11-3,75,62,48,53,51,48,100,75,40,30.16,30.12,30.07,10,10,10,8,1,,0.00,1,,19
2012-11-4,80,64,48,54,51,48,100,74,38,30.23,30.17,30.15,10,10,10,6,1,,0.00,0,,325
2012-11-5,80,64,48,55,52,48,100,75,38,30.19,30.12,30.07,10,10,8,5,1,,0.01,0,,278
2012-11-6,79,62,46,56,52,46,100,77,44,30.12,30.06,30.00,10,10,7,6,1,,0.00,0,,53
2012-11-7,71,58,46,54,51,46,97,79,53,30.03,29.95,29.85,10,9,5,18,4,28,0.00,0,,207
2012-11-8,59,52,44,50,42,37,89,71,47,29.94,29.89,29.83,10,9,2,21,9,24,0.05,2,Rain,217
2012-11-9,55,47,39,40,37,34,86,69,47,29.97,29.93,29.90,10,10,10,8,3,,0.00,2,,203
2012-11-10,57,45,33,36,33,30,93,67,36,30.27,30.11,29.97,10,10,10,6,1,,0.00,0,,154
2012-11-11,57,44,32,37,34,31,100,72,42,30.41,30.37,30.28,10,10,9,5,1,,0.00,0,,290
2012-11-12,62,48,34,38,34,31,96,65,31,30.41,30.35,30.28,10,10,10,7,1,,0.00,0,,344
2012-11-13,66,51,36,39,36,31,93,63,27,30.29,30.20,30.14,10,10,10,6,1,,0.00,0,,352
2012-11-14,70,54,39,48,43,37,96,77,46,30.15,30.10,30.04,10,10,10,8,1,,0.00,0,,43
2012-11-15,66,52,39,48,44,39,100,76,48,30.06,30.02,29.97,10,10,7,6,1,,0.00,0,,200
2012-11-16,59,52,44,54,51,43,100,93,75,30.03,29.97,29.92,10,4,2,12,2,,0.40,7,Rain,348
2012-11-17,61,56,51,58,54,51,100,96,72,30.00,29.89,29.84,10,5,1,14,5,28,0.86,8,Rain,180
2012-11-18,60,52,45,51,45,38,96,74,46,30.19,30.11,30.01,10,10,10,9,4,,0.01,3,,225
2012-11-19,66,58,50,49,47,45,93,69,45,30.25,30.20,30.17,10,10,10,12,2,16,0.00,4,,198
2012-11-20,64,58,51,57,54,48,100,87,68,30.16,30.09,30.02,10,8,2,13,6,21,0.34,8,Rain,177
2012-11-21,66,55,43,57,53,42,100,90,50,30.21,30.11,30.05,10,6,2,12,5,16,0.29,5,Rain,171
2012-11-22,66,54,41,47,43,39,97,75,40,30.27,30.22,30.19,10,10,6,6,1,,0.00,0,,325
2012-11-23,66,52,37,47,44,37,100,80,48,30.30,30.24,30.19,10,10,9,5,1,,0.00,0,,354
2012-11-24,66,52,37,48,43,37,100,82,48,30.21,30.13,30.04,10,10,10,5,0,,0.00,0,,30
2012-11-25,66,51,36,49,44,36,100,83,50,30.04,29.99,29.94,10,10,9,4,0,,0.00,0,,310
2012-11-26,64,50,37,50,44,38,100,91,60,30.09,30.05,29.99,10,6,0,7,0,,0.00,1,Fog,55
2012-11-27,62,52,42,51,48,41,100,85,59,30.13,30.07,30.03,10,7,2,6,1,,0.00,2,,173
2012-11-28,61,54,46,57,51,46,100,96,77,30.06,29.95,29.90,10,4,1,9,3,17,0.76,6,Rain,184
2012-11-29,60,56,51,57,52,49,97,87,78,30.06,29.97,29.86,10,10,3,15,5,26,0.20,6,Rain,169
2012-11-30,59,57,55,58,56,54,100,95,83,30.02,29.88,29.76,10,7,1,20,12,30,1.78,8,Rain,186